Wind_Speed
43 43 44 42 43 47 44 40 32 30 30 30 33 33 30 30 29 30 28 20 18 25 36 39 44 40 37 34 30 29 27 25 24 24 22 20 18 15 14 13 14 13 12 11 9 8 7 6 6
47 47 46 47 48 49 44 37 35 32 33 34 36 36 36 35 32 30 31 24 20 22 28 35 45 45 39 37 36 32 30 29 27 26 25 23 21 18 17 15 15 14 14 13 11 10 8 7 7
46 48 49 49 50 49 43 37 36 39 39 39 39 37 36 38 36 31 33 29 25 23 29 35 38 47 44 40 38 36 33 31 31 29 28 26 25 21 19 18 16 16 15 15 13 11 9 8 8
45 47 50 51 50 46 45 39 41 42 40 42 44 40 38 40 37 36 34 34 31 27 32 33 41 45 47 44 40 38 36 33 33 32 30 29 27 23 22 20 18 18 17 16 15 13 11 10 9
41 47 48 48 47 45 46 43 45 46 45 45 45 40 39 39 39 38 37 39 37 30 29 29 41 49 49 46 44 41 38 37 35 34 33 32 30 27 24 22 21 20 19 19 17 16 14 12 10
40 42 47 47 45 44 46 45 44 46 45 46 48 44 40 40 42 41 40 39 39 36 32 32 42 47 52 48 45 44 43 39 38 36 36 35 33 29 27 24 23 22 21 20 19 17 16 14 13
38 41 45 47 48 47 45 47 48 48 47 47 46 48 45 45 46 44 40 39 37 36 37 34 37 48 55 53 49 46 46 42 39 38 37 37 37 31 29 26 24 23 23 22 21 20 19 17 15
42 40 42 46 44 44 48 49 48 47 48 50 50 50 54 47 44 42 39 37 34 32 33 35 35 53 53 52 51 49 47 45 43 40 40 39 38 34 31 29 26 25 25 25 23 22 21 19 18
44 43 41 42 46 45 48 54 52 52 50 51 55 55 56 55 50 44 41 34 32 31 31 34 36 44 59 58 53 53 50 49 45 43 42 42 40 37 34 32 29 28 27 26 25 24 23 21 20
44 45 46 43 46 50 53 53 54 56 54 53 55 58 59 55 52 51 43 39 38 34 29 31 37 40 50 59 55 51 55 52 49 47 45 44 42 41 38 35 31 30 29 28 27 26 26 24 23
46 45 44 48 48 53 53 55 54 55 54 56 56 59 57 56 59 56 44 37 41 35 34 32 31 33 47 55 49 59 53 56 53 50 48 46 45 44 41 38 35 33 32 31 29 29 28 27 25
45 45 44 46 49 53 55 55 56 57 55 56 57 56 56 60 57 57 51 43 40 40 41 39 40 42 47 63 42 52 49 59 58 53 51 49 48 45 44 42 39 37 36 33 31 30 30 30 27
41 44 47 50 53 54 58 56 56 56 57 56 57 57 53 54 52 54 50 48 42 41 39 36 39 39 44 60 53 46 51 51 57 59 56 53 50 49 48 45 43 41 38 35 33 32 33 32 30
50 50 54 55 55 58 60 60 60 57 59 61 61 60 60 57 57 55 52 42 44 35 34 33 39 45 47 57 62 47 46 63 55 61 58 58 56 51 49 48 46 43 40 37 36 36 35 34 33
52 58 56 56 56 57 67 54 57 61 63 64 62 61 62 60 58 57 55 44 39 34 33 30 41 44 49 56 73 68 43 42 47 70 67 67 59 54 51 50 48 44 42 40 40 39 37 37 37
51 52 46 41 48 52 62 48 60 64 65 63 65 65 65 60 61 57 55 50 46 41 36 40 46 38 45 54 64 72 41 33 34 38 62 63 59 55 54 53 48 46 44 44 42 41 41 39 39
36 35 31 23 34 37 46 54 58 64 69 69 69 64 64 63 61 58 53 52 52 52 49 46 49 41 46 53 61 74 74 54 29 31 33 61 71 59 54 51 50 50 48 45 45 46 44 43 43
29 33 31 31 30 35 30 37 42 53 67 71 73 69 66 67 63 59 55 55 50 53 53 55 50 44 50 44 43 66 82 51 31 27 33 34 58 58 56 55 55 53 50 50 49 49 48 48 47
20 24 23 25 29 30 26 23 22 25 41 60 70 69 65 63 61 58 57 55 53 48 47 49 54 45 44 33 25 41 83 55 39 28 27 29 40 60 63 57 56 56 55 53 52 52 51 51 51
11 9 9 11 17 18 20 20 22 24 24 31 37 48 59 58 59 58 54 53 51 43 47 49 51 45 41 27 27 26 37 79 70 46 34 29 37 42 53 58 60 59 57 56 56 56 55 55 51
16 14 16 16 18 22 20 9 18 19 22 22 21 29 44 46 50 49 42 49 42 43 44 47 44 52 35 31 21 22 21 44 63 49 43 30 30 46 38 41 51 62 62 62 61 59 54 52 53
18 15 17 24 24 18 25 14 11 12 13 13 21 20 28 33 36 41 40 39 40 42 43 44 41 58 42 32 22 24 27 24 44 50 40 34 33 42 48 41 37 50 59 62 64 66 51 52 42
13 17 23 27 25 21 18 24 20 20 13 13 24 15 20 25 27 29 29 31 40 42 39 39 39 56 32 40 28 20 24 29 32 39 38 40 33 31 42 44 41 34 41 40 38 54 50 35 36
17 10 19 14 15 16 10 20 23 26 27 24 16 12 14 14 17 14 20 25 28 30 34 44 40 47 38 27 19 28 23 24 39 46 39 34 40 37 37 41 52 58 49 45 35 33 35 40 43
11 17 20 21 16 13 12 15 14 16 17 12 16 16 13 13 12 15 16 20 21 25 37 41 38 47 36 33 30 28 28 29 28 45 42 36 41 48 49 52 48 39 50 46 48 34 43 38 38
12 13 17 23 15 14 13 5 5 9 11 16 18 17 16 15 14 15 19 17 18 24 33 33 34 40 40 33 35 29 29 26 26 41 32 40 50 48 47 47 46 46 47 47 47 45 46 48 50
8 12 14 11 12 14 8 10 17 11 19 23 17 12 16 18 15 13 8 18 25 32 26 24 17 28 28 22 30 28 30 22 33 30 34 39 48 44 45 53 48 53 55 50 51 55 56 43 45
7 8 13 16 15 21 13 12 14 5 19 17 17 14 16 18 12 6 9 18 21 25 13 17 17 29 18 14 24 34 37 27 22 20 18 14 14 23 26 33 35 40 44 63 54 44 46 37 36
11 12 18 18 21 21 20 20 21 21 13 15 14 16 15 11 11 12 10 19 12 11 22 15 13 14 8 14 17 20 25 23 23 20 22 19 18 18 16 20 21 23 24 24 29 29 37 34 32
15 20 18 17 15 17 18 20 21 18 16 16 17 15 9 10 13 8 13 9 7 15 9 18 12 7 4 7 8 13 14 16 15 14 15 14 13 17 23 28 28 29 29 28 26 32 34 29 31
Wind_Direction
257 256 256 255 254 255 256 258 263 260 262 263 261 264 268 268 267 270 272 271 272 258 239 240 240 233 234 238 238 244 243 240 238 241 245 250 253 253 249 252 252 255 256 257 260 264 268 275 279
260 257 256 255 255 257 258 259 261 255 253 254 256 260 264 270 271 272 273 276 276 262 246 245 236 237 234 235 238 237 242 243 239 241 243 246 249 251 249 250 253 250 250 248 252 258 262 274 276
257 258 255 255 255 258 260 257 254 253 251 252 255 258 262 264 267 273 273 270 273 266 249 242 240 236 236 235 235 235 236 238 240 239 242 245 246 247 247 245 251 250 247 247 250 254 257 267 273
261 258 257 254 255 254 257 253 252 248 247 252 258 256 257 262 262 267 272 274 272 273 256 247 243 236 231 232 234 235 234 235 237 239 241 244 246 245 246 244 246 247 245 244 250 251 255 260 269
261 261 260 257 256 255 253 251 252 252 250 250 251 252 254 257 260 259 263 268 273 275 276 260 246 233 231 228 231 235 233 234 234 237 240 242 244 244 244 244 246 247 244 245 247 250 253 259 263
269 265 260 260 256 252 251 248 248 247 250 251 251 250 248 253 256 257 258 263 267 270 267 266 245 239 234 229 227 233 235 234 233 235 238 242 243 243 245 242 244 248 246 244 247 248 251 256 260
280 273 267 262 258 254 252 251 245 243 245 249 252 252 245 251 253 254 257 260 265 269 271 266 253 242 235 229 227 227 234 233 233 234 235 240 243 242 242 243 243 245 247 246 246 249 251 253 256
287 281 276 265 263 257 255 250 248 246 246 247 249 250 254 244 247 252 253 255 259 262 265 270 256 241 232 227 228 228 232 233 233 232 235 237 242 243 242 242 242 244 245 246 246 246 250 254 256
290 291 285 275 263 258 250 248 245 245 241 242 245 244 247 251 253 256 255 251 251 256 261 264 265 256 237 230 228 229 231 232 232 233 235 236 240 242 242 240 240 241 244 245 246 247 248 251 254
290 290 289 279 263 257 252 249 248 244 243 238 239 245 246 246 250 253 251 253 256 253 256 262 263 256 245 227 230 228 231 231 229 232 233 235 237 238 240 241 239 239 241 244 246 248 249 250 252
290 289 285 282 274 260 256 253 248 249 246 242 239 240 244 246 248 247 246 249 247 249 251 247 245 255 248 223 228 222 232 230 229 229 232 235 237 238 238 239 241 239 240 242 243 247 250 251 252
289 286 282 273 268 265 255 253 250 246 246 246 244 241 243 246 250 256 256 245 247 248 248 253 249 249 241 221 229 218 225 235 231 229 228 233 235 239 237 236 238 238 241 242 244 246 250 252 251
288 282 282 278 267 261 258 252 252 246 244 242 243 243 241 245 247 251 254 259 245 246 252 250 245 255 252 225 223 215 219 230 227 229 229 228 233 236 240 231 237 239 241 243 244 246 248 249 252
281 285 290 276 269 258 253 248 245 243 241 239 239 240 239 237 238 242 243 245 248 240 230 238 245 253 252 239 231 229 225 227 227 228 229 231 230 232 221 236 239 240 241 242 244 245 246 249 250
294 293 293 280 268 259 252 248 249 245 239 239 240 239 239 237 237 238 238 232 237 217 223 229 243 252 253 252 233 238 233 208 226 230 231 230 229 229 233 235 236 239 241 241 242 244 245 245 248
302 297 291 285 272 264 253 249 242 243 243 237 238 237 237 236 238 233 237 233 212 209 220 236 243 247 246 247 239 237 221 213 216 228 232 229 227 228 231 235 236 238 239 241 244 246 246 247 246
298 300 296 298 281 269 258 242 241 241 239 237 236 234 236 236 236 236 231 235 219 221 225 226 237 240 236 252 245 238 236 233 215 220 232 234 226 227 231 235 237 239 241 243 245 247 248 249 248
303 292 287 289 286 290 277 249 245 243 240 238 237 234 230 234 233 233 233 232 226 225 230 223 228 238 235 250 256 246 238 227 219 221 224 236 229 227 230 232 237 240 242 244 246 247 249 249 250
311 316 306 297 292 296 296 281 269 254 250 239 237 235 232 230 231 230 230 231 233 226 227 233 235 237 233 239 254 254 240 222 220 233 232 266 234 231 230 233 237 240 242 243 245 248 250 251 252
333 6 348 324 346 334 305 301 277 243 251 251 239 235 230 226 225 229 228 227 230 227 224 228 232 220 219 237 241 254 254 238 252 243 248 264 234 232 229 235 236 238 241 242 245 247 249 251 253
348 358 7 7 355 345 343 313 267 253 246 250 225 214 216 223 220 221 221 225 223 225 226 226 229 210 208 215 219 236 239 254 250 233 247 248 236 234 230 229 235 240 239 241 243 246 250 251 251
303 340 357 5 352 354 16 29 6 267 250 224 169 188 186 209 213 217 220 219 215 218 221 219 220 217 220 213 216 233 215 223 247 240 240 227 226 226 237 234 237 249 245 246 245 245 245 247 256
322 325 330 335 347 346 7 40 42 64 78 139 149 158 184 199 194 204 218 218 214 219 222 217 218 224 217 210 220 236 222 217 214 232 227 231 237 238 237 240 223 226 243 251 244 252 257 246 255
299 336 348 356 10 17 354 35 45 84 101 113 120 129 139 163 171 206 225 217 226 228 225 215 219 216 220 196 220 246 248 237 216 214 218 228 233 227 227 234 239 237 239 257 245 253 261 256 254
331 334 346 347 359 21 16 38 44 81 98 113 117 130 141 159 185 221 206 209 218 227 212 217 223 219 221 226 232 233 233 237 233 226 221 220 230 232 239 239 253 245 242 252 256 263 266 276 272
345 358 1 35 26 47 33 40 38 106 99 93 120 145 162 180 192 182 192 203 216 214 222 226 225 213 241 247 250 227 232 249 236 225 230 233 226 237 241 249 255 251 249 256 262 265 269 267 276
33 29 38 69 33 36 59 96 81 97 112 108 105 128 140 141 154 163 176 190 201 213 221 207 232 233 246 264 253 240 233 240 236 232 237 234 231 243 250 249 255 260 258 258 261 260 266 276 276
49 47 53 60 77 65 107 105 101 123 80 102 97 107 142 135 153 104 186 202 198 201 174 218 221 227 235 227 238 237 234 231 207 202 209 223 235 234 243 256 255 251 255 253 252 256 269 271 258
55 57 68 71 84 90 91 72 69 93 141 108 117 90 116 72 115 82 96 154 172 189 180 174 168 196 203 211 211 210 208 210 233 232 228 236 241 244 244 228 242 247 251 248 241 241 242 240 244
71 76 78 78 79 84 86 93 82 86 92 107 123 127 123 81 104 90 72 126 132 167 167 197 202 239 257 331 304 281 269 263 282 283 290 283 275 271 257 244 240 241 247 254 254 248 246 259 244
Height
5802 5803 5806 5810 5813 5809 5814 5821 5828 5830 5831 5832 5830 5832 5835 5836 5838 5840 5839 5847 5847 5847 5851 5856 5857 5859 5863 5868 5870 5873 5876 5879 5880 5881 5882 5884 5884 5885 5886 5887 5887 5888 5889 5889 5889 5889 5889 5888 5888
5793 5795 5798 5799 5802 5803 5810 5818 5820 5823 5823 5822 5823 5826 5827 5829 5832 5834 5836 5840 5842 5842 5845 5847 5851 5854 5857 5861 5866 5868 5871 5874 5876 5877 5879 5880 5881 5882 5883 5884 5885 5886 5886 5887 5887 5887 5887 5887 5887
5783 5787 5790 5791 5793 5797 5803 5810 5812 5811 5811 5812 5814 5819 5820 5822 5826 5829 5828 5833 5836 5838 5839 5840 5845 5847 5852 5856 5860 5863 5865 5868 5871 5873 5874 5876 5878 5879 5880 5881 5882 5883 5883 5884 5885 5885 5885 5885 5886
5774 5777 5780 5781 5786 5791 5792 5799 5799 5801 5804 5804 5806 5811 5812 5814 5819 5821 5823 5824 5828 5831 5833 5835 5836 5840 5843 5849 5854 5857 5859 5862 5865 5869 5871 5873 5874 5876 5877 5878 5879 5880 5881 5882 5883 5883 5883 5883 5884
5764 5766 5769 5774 5779 5782 5784 5786 5786 5790 5794 5796 5797 5802 5803 5807 5811 5813 5816 5817 5819 5824 5825 5829 5829 5833 5836 5840 5846 5851 5854 5857 5859 5863 5866 5868 5870 5872 5874 5875 5876 5877 5878 5879 5880 5881 5881 5882 5881
5756 5758 5760 5765 5768 5771 5773 5775 5775 5779 5783 5788 5790 5795 5794 5799 5802 5806 5808 5813 5812 5814 5817 5821 5822 5824 5829 5833 5837 5843 5848 5851 5853 5856 5859 5862 5865 5868 5870 5872 5873 5874 5875 5876 5877 5878 5879 5879 5880
5746 5747 5752 5753 5757 5762 5764 5764 5766 5766 5771 5776 5778 5782 5786 5789 5792 5798 5800 5803 5805 5807 5809 5811 5813 5816 5820 5825 5828 5833 5840 5844 5848 5851 5853 5856 5859 5864 5866 5868 5869 5871 5872 5872 5874 5875 5876 5877 5877
5738 5739 5741 5743 5745 5751 5752 5752 5756 5760 5764 5765 5766 5770 5769 5777 5781 5788 5793 5796 5798 5801 5801 5802 5806 5809 5811 5816 5820 5826 5832 5837 5841 5844 5848 5850 5853 5858 5861 5863 5865 5866 5867 5868 5870 5871 5872 5874 5874
5728 5731 5731 5732 5733 5736 5735 5735 5742 5746 5751 5753 5752 5756 5759 5763 5771 5779 5784 5789 5789 5792 5792 5795 5796 5798 5802 5806 5810 5817 5823 5828 5833 5837 5841 5843 5847 5852 5855 5858 5860 5862 5863 5864 5866 5867 5868 5869 5870
5719 5720 5719 5719 5719 5720 5721 5723 5729 5734 5739 5742 5740 5742 5748 5753 5758 5763 5773 5777 5780 5783 5784 5786 5788 5789 5791 5797 5802 5809 5814 5819 5823 5828 5833 5837 5840 5845 5849 5853 5855 5856 5858 5859 5861 5863 5863 5864 5865
5709 5710 5707 5707 5707 5706 5710 5713 5718 5720 5727 5730 5734 5732 5739 5744 5747 5750 5763 5769 5772 5776 5777 5779 5781 5781 5783 5792 5794 5801 5805 5810 5814 5819 5825 5830 5833 5838 5843 5846 5849 5851 5851 5853 5855 5857 5859 5860 5861
5702 5698 5696 5695 5694 5692 5696 5700 5705 5708 5714 5716 5722 5726 5731 5733 5740 5746 5752 5760 5764 5766 5768 5773 5773 5775 5777 5783 5787 5792 5798 5802 5807 5811 5815 5822 5826 5831 5835 5839 5842 5844 5846 5847 5849 5851 5854 5855 5855
5690 5688 5685 5681 5679 5679 5679 5687 5690 5696 5701 5702 5706 5712 5722 5725 5731 5736 5743 5747 5751 5756 5759 5762 5765 5766 5769 5776 5779 5782 5787 5789 5796 5801 5806 5812 5817 5821 5825 5832 5833 5836 5839 5841 5843 5845 5847 5848 5850
5679 5676 5670 5666 5663 5663 5661 5666 5671 5680 5682 5686 5687 5696 5704 5713 5716 5721 5729 5738 5740 5746 5748 5752 5756 5758 5761 5769 5771 5773 5778 5786 5783 5790 5796 5802 5808 5812 5818 5821 5825 5828 5831 5834 5836 5838 5839 5842 5843
5665 5662 5654 5644 5645 5648 5637 5661 5660 5663 5664 5670 5673 5681 5687 5696 5703 5710 5715 5726 5731 5733 5737 5741 5746 5749 5750 5751 5762 5766 5771 5771 5771 5778 5784 5790 5797 5802 5807 5811 5816 5820 5824 5826 5828 5830 5832 5833 5837
5653 5646 5640 5631 5629 5625 5623 5651 5643 5642 5645 5656 5656 5664 5671 5682 5687 5696 5703 5713 5718 5723 5728 5734 5736 5739 5741 5742 5750 5755 5761 5761 5764 5769 5775 5781 5789 5793 5797 5802 5808 5811 5814 5817 5821 5824 5824 5826 5828
5643 5638 5631 5628 5618 5613 5614 5623 5624 5621 5624 5632 5638 5649 5657 5667 5674 5683 5692 5699 5710 5711 5717 5725 5728 5733 5735 5733 5738 5746 5749 5755 5758 5763 5767 5771 5778 5784 5788 5795 5800 5802 5805 5810 5813 5816 5817 5819 5820
5638 5632 5628 5622 5616 5604 5603 5606 5604 5603 5605 5613 5621 5631 5640 5650 5662 5671 5680 5688 5696 5704 5708 5715 5720 5726 5731 5733 5733 5734 5740 5749 5750 5755 5762 5765 5770 5775 5780 5786 5789 5793 5797 5801 5805 5806 5808 5810 5811
5635 5627 5620 5615 5605 5596 5596 5593 5592 5591 5590 5598 5604 5616 5628 5638 5650 5659 5668 5675 5683 5693 5697 5703 5714 5720 5725 5728 5729 5729 5734 5740 5746 5750 5754 5759 5761 5765 5771 5776 5781 5785 5789 5791 5794 5797 5799 5800 5802
5633 5626 5619 5611 5602 5596 5590 5586 5583 5581 5583 5585 5592 5600 5613 5624 5639 5649 5658 5665 5673 5682 5688 5693 5702 5711 5716 5720 5723 5724 5724 5732 5736 5744 5749 5752 5757 5759 5762 5767 5771 5775 5778 5780 5783 5786 5788 5791 5794
5631 5624 5617 5609 5602 5594 5586 5581 5575 5575 5576 5579 5583 5590 5603 5619 5632 5642 5651 5654 5666 5674 5680 5687 5694 5701 5708 5715 5717 5720 5721 5724 5732 5739 5746 5747 5750 5756 5756 5759 5760 5763 5767 5768 5772 5775 5780 5782 5784
5629 5623 5616 5608 5601 5596 5588 5580 5573 5571 5572 5575 5582 5590 5606 5616 5626 5637 5643 5648 5658 5665 5672 5680 5686 5693 5699 5704 5708 5714 5716 5717 5725 5732 5739 5740 5743 5747 5750 5754 5755 5755 5755 5758 5761 5762 5767 5771 5774
5627 5621 5613 5608 5603 5597 5593 5584 5578 5573 5573 5579 5587 5597 5606 5613 5622 5633 5639 5645 5654 5660 5667 5674 5681 5685 5691 5696 5702 5706 5711 5712 5717 5724 5729 5731 5735 5737 5743 5746 5749 5749 5750 5751 5754 5754 5758 5763 5767
5626 5618 5612 5608 5604 5601 5596 5592 5587 5582 5583 5589 5595 5603 5609 5616 5625 5632 5637 5643 5649 5656 5662 5669 5674 5680 5684 5689 5695 5701 5704 5706 5709 5717 5719 5722 5725 5729 5734 5737 5741 5740 5740 5745 5746 5747 5750 5753 5757
5624 5618 5613 5610 5606 5603 5598 5596 5596 5594 5594 5597 5601 5608 5614 5621 5627 5632 5636 5642 5648 5653 5659 5665 5670 5675 5679 5684 5688 5695 5698 5699 5703 5707 5711 5713 5716 5722 5725 5728 5731 5729 5734 5736 5737 5740 5742 5744 5747
5624 5620 5616 5612 5609 5607 5603 5602 5602 5599 5600 5603 5607 5612 5617 5623 5627 5630 5635 5641 5646 5651 5657 5662 5668 5674 5678 5679 5682 5689 5692 5694 5697 5702 5705 5706 5710 5711 5715 5717 5720 5723 5724 5726 5727 5731 5731 5733 5736
5626 5623 5619 5616 5613 5611 5608 5607 5607 5605 5605 5608 5612 5616 5620 5625 5627 5631 5636 5640 5646 5650 5655 5663 5667 5673 5674 5673 5677 5684 5688 5691 5693 5696 5696 5698 5701 5703 5706 5710 5710 5712 5714 5717 5717 5720 5721 5723 5723
5628 5627 5625 5620 5617 5616 5613 5612 5610 5611 5611 5614 5618 5621 5622 5626 5631 5635 5637 5641 5645 5650 5655 5662 5665 5670 5671 5672 5673 5679 5683 5686 5688 5687 5688 5691 5693 5695 5697 5700 5702 5704 5705 5705 5706 5708 5709 5713 5712
5633 5631 5628 5627 5624 5622 5620 5619 5615 5617 5617 5621 5624 5626 5628 5632 5635 5638 5638 5643 5647 5651 5656 5661 5664 5667 5667 5669 5670 5672 5675 5678 5683 5682 5683 5684 5686 5688 5691 5693 5693 5695 5696 5697 5697 5698 5700 5703 5704
5638 5636 5633 5632 5632 5629 5627 5626 5624 5625 5625 5627 5629 5632 5634 5635 5638 5641 5643 5647 5650 5653 5657 5660 5662 5664 5665 5665 5667 5668 5670 5672 5674 5675 5676 5677 5678 5680 5683 5683 5682 5684 5686 5687 5686 5688 5690 5692 5694